TVF99AR LFKB-LFRS

Flight info

Callsign TVF99AR
Flight time 1h 47m
Altitude 36000
Route AKUTI DCT NIZ DCT MTL DCT LMG DCT MANAK
Aircraft B738/M-SDE2E3FGHIRWXY/LB1

Departure

Time 2026-04-22 20:49
Airport Bastia-Poretta International airport (LFKB)

Arrival

Time 2026-04-22 22:37
Airport Nantes Atlantique Airport (LFRS)
Time Latitude Longitude Altitude Speed Heading
2026-04-22 20:21 42.54729 9.48209 33 ft 0 kts 253°
2026-04-22 20:38 42.54732 9.48226 32 ft 4 kts 253°
2026-04-22 20:39 42.54740 9.48260 34 ft 3 kts 253°
2026-04-22 20:39 42.54746 9.48288 34 ft 4 kts 268°
2026-04-22 20:39 42.54741 9.48315 33 ft 4 kts 339°
2026-04-22 20:39 42.54716 9.48325 31 ft 4 kts 342°
2026-04-22 20:40 42.54696 9.48334 33 ft 0 kts 342°
2026-04-22 20:42 42.54698 9.48333 33 ft 1 kts 342°
2026-04-22 20:42 42.54714 9.48326 31 ft 4 kts 343°
2026-04-22 20:43 42.54747 9.48313 34 ft 6 kts 343°
2026-04-22 20:43 42.54796 9.48293 34 ft 8 kts 343°
2026-04-22 20:43 42.54859 9.48266 33 ft 10 kts 342°
2026-04-22 20:43 42.54935 9.48238 33 ft 12 kts 355°
2026-04-22 20:44 42.55023 9.48220 34 ft 14 kts 343°
2026-04-22 20:44 42.55117 9.48181 34 ft 15 kts 343°
2026-04-22 20:44 42.55214 9.48140 34 ft 15 kts 342°
2026-04-22 20:44 42.55316 9.48097 34 ft 16 kts 343°
2026-04-22 20:45 42.55424 9.48052 34 ft 16 kts 342°
2026-04-22 20:45 42.55531 9.48007 33 ft 17 kts 343°
2026-04-22 20:45 42.55654 9.47956 30 ft 19 kts 343°
2026-04-22 20:45 42.55749 9.47916 27 ft 13 kts 342°
2026-04-22 20:46 42.55916 9.47871 24 ft 10 kts 26°
2026-04-22 20:46 42.55950 9.47948 25 ft 10 kts 72°
2026-04-22 20:46 42.55975 9.48028 26 ft 9 kts 47°
2026-04-22 20:47 42.56039 9.48045 23 ft 11 kts 348°
2026-04-22 20:47 42.56113 9.48017 23 ft 11 kts 343°
2026-04-22 20:47 42.56189 9.47986 22 ft 11 kts 343°
2026-04-22 20:47 42.56252 9.47929 21 ft 11 kts 314°
2026-04-22 20:48 42.56300 9.47881 21 ft 9 kts 355°
2026-04-22 20:48 42.56328 9.47911 21 ft 8 kts 84°
2026-04-22 20:48 42.56290 9.47944 23 ft 7 kts 162°
2026-04-22 20:48 42.56144 9.48005 22 ft 52 kts 163°
2026-04-22 20:49 42.55573 9.48244 32 ft 117 kts 162°
2026-04-22 20:49 42.54614 9.48635 84 ft 165 kts 165°
2026-04-22 20:49 42.53518 9.49109 698 ft 170 kts 160°
2026-04-22 20:49 42.52492 9.49939 1331 ft 170 kts 136°
2026-04-22 20:50 42.51527 9.50890 2021 ft 174 kts 141°
2026-04-22 20:50 42.50505 9.51774 2709 ft 176 kts 143°
2026-04-22 20:50 42.49470 9.52648 3463 ft 170 kts 143°
2026-04-22 20:50 42.48463 9.53476 4152 ft 173 kts 144°
2026-04-22 20:51 42.47353 9.54399 4380 ft 204 kts 144°
2026-04-22 20:51 42.46086 9.55451 4623 ft 224 kts 147°
2026-04-22 20:51 42.44655 9.56600 4737 ft 253 kts 147°
2026-04-22 20:51 42.43146 9.57975 5093 ft 269 kts 133°
2026-04-22 20:52 42.42238 9.60157 5663 ft 268 kts 97°
2026-04-22 20:52 42.42412 9.62614 6449 ft 262 kts 65°
2026-04-22 20:52 42.43428 9.64565 7380 ft 252 kts 40°
2026-04-22 20:52 42.44944 9.65789 7907 ft 262 kts 17°
2026-04-22 20:53 42.46760 9.65936 8527 ft 265 kts 348°
2026-04-22 20:53 42.48409 9.64844 9287 ft 269 kts 320°
2026-04-22 20:53 42.49619 9.62878 10015 ft 274 kts 306°
2026-04-22 20:53 42.50661 9.60728 10765 ft 273 kts 306°
2026-04-22 20:54 42.51719 9.58575 11394 ft 278 kts 306°
2026-04-22 20:54 42.52813 9.56333 11737 ft 294 kts 307°
2026-04-22 20:54 42.54023 9.53990 12004 ft 311 kts 307°
2026-04-22 20:54 42.55293 9.51573 12608 ft 316 kts 307°
2026-04-22 20:55 42.56547 9.49119 13406 ft 316 kts 306°
2026-04-22 20:55 42.57947 9.46838 14144 ft 318 kts 320°
2026-04-22 20:55 42.59802 9.45171 14787 ft 318 kts 329°
2026-04-22 20:55 42.61708 9.43692 15685 ft 315 kts 329°
2026-04-22 20:56 42.63645 9.42215 16203 ft 323 kts 329°
2026-04-22 20:56 42.65613 9.40697 16821 ft 326 kts 329°
2026-04-22 20:56 42.67554 9.39173 17535 ft 327 kts 328°
2026-04-22 20:56 42.69520 9.37609 18264 ft 329 kts 328°
2026-04-22 20:57 42.71495 9.36021 18894 ft 331 kts 328°
2026-04-22 20:57 42.73479 9.34416 19471 ft 334 kts 327°
2026-04-22 20:57 42.75485 9.32788 20026 ft 337 kts 327°
2026-04-22 20:57 42.77505 9.31144 20588 ft 340 kts 327°
2026-04-22 20:58 42.79541 9.29487 21143 ft 342 kts 327°
2026-04-22 20:58 42.81590 9.27816 21696 ft 345 kts 327°
2026-04-22 20:58 42.83656 9.26130 22232 ft 348 kts 327°
2026-04-22 20:58 42.85739 9.24430 22772 ft 351 kts 327°
2026-04-22 20:59 42.87839 9.22714 23283 ft 354 kts 327°
2026-04-22 20:59 42.89960 9.20980 23785 ft 357 kts 327°
2026-04-22 20:59 42.92093 9.19233 24211 ft 359 kts 327°
2026-04-22 20:59 42.94239 9.17474 24658 ft 361 kts 327°
2026-04-22 21:00 42.96396 9.15704 25101 ft 362 kts 327°
2026-04-22 21:00 42.98562 9.13926 25531 ft 364 kts 327°
2026-04-22 21:00 43.00736 9.12138 25947 ft 366 kts 327°
2026-04-22 21:00 43.02926 9.10337 26353 ft 368 kts 327°
2026-04-22 21:01 43.05128 9.08524 26737 ft 371 kts 327°
2026-04-22 21:01 43.07345 9.06697 27107 ft 374 kts 327°
2026-04-22 21:01 43.09584 9.04850 27398 ft 378 kts 327°
2026-04-22 21:01 43.11847 9.02982 27713 ft 381 kts 327°
2026-04-22 21:02 43.14120 9.01104 28114 ft 382 kts 326°
2026-04-22 21:02 43.16340 8.99270 28630 ft 380 kts 326°
2026-04-22 21:02 43.18593 8.97407 29226 ft 376 kts 326°
2026-04-22 21:02 43.20812 8.95528 29752 ft 373 kts 322°
2026-04-22 21:03 43.22691 8.93104 30173 ft 371 kts 309°
2026-04-22 21:03 43.24079 8.90132 30587 ft 371 kts 298°
2026-04-22 21:03 43.25178 8.86947 31013 ft 369 kts 296°
2026-04-22 21:03 43.26227 8.83731 31369 ft 369 kts 296°
2026-04-22 21:04 43.27262 8.80509 31719 ft 369 kts 296°
2026-04-22 21:04 43.28296 8.77297 32108 ft 367 kts 296°
2026-04-22 21:04 43.29332 8.74100 32499 ft 366 kts 297°
2026-04-22 21:04 43.30369 8.70919 32858 ft 365 kts 297°
2026-04-22 21:05 43.31406 8.67750 33274 ft 362 kts 297°
2026-04-22 21:05 43.32425 8.64645 33631 ft 361 kts 297°
2026-04-22 21:05 43.33459 8.61496 33937 ft 362 kts 298°
2026-04-22 21:05 43.34493 8.58350 34247 ft 361 kts 298°
2026-04-22 21:06 43.35523 8.55212 34538 ft 360 kts 298°
2026-04-22 21:06 43.36551 8.52077 34797 ft 360 kts 298°
2026-04-22 21:06 43.37578 8.48943 35036 ft 360 kts 297°
2026-04-22 21:06 43.38603 8.45810 35287 ft 359 kts 297°
2026-04-22 21:07 43.39627 8.42678 35541 ft 359 kts 297°
2026-04-22 21:07 43.40650 8.39545 35762 ft 359 kts 297°
2026-04-22 21:07 43.41672 8.36411 35996 ft 359 kts 297°
2026-04-22 21:07 43.42690 8.33284 36161 ft 357 kts 297°
2026-04-22 21:08 43.44699 8.27101 36177 ft 353 kts 297°
2026-04-22 21:08 43.46713 8.20897 36186 ft 358 kts 297°
2026-04-22 21:09 43.48748 8.14612 36176 ft 361 kts 297°
2026-04-22 21:09 43.50795 8.08272 36172 ft 363 kts 297°
2026-04-22 21:10 43.52846 8.01903 36173 ft 364 kts 297°
2026-04-22 21:10 43.54866 7.95614 36134 ft 363 kts 297°
2026-04-22 21:11 43.56901 7.89265 36170 ft 362 kts 297°
2026-04-22 21:11 43.58927 7.82929 36169 ft 360 kts 297°
2026-04-22 21:12 43.60939 7.76622 36171 ft 358 kts 297°
2026-04-22 21:12 43.62926 7.70378 36164 ft 357 kts 297°
2026-04-22 21:13 43.64915 7.64113 36166 ft 356 kts 297°
2026-04-22 21:13 43.66894 7.57866 36139 ft 355 kts 297°
2026-04-22 21:14 43.68862 7.51634 36161 ft 354 kts 297°
2026-04-22 21:14 43.70826 7.45406 36183 ft 354 kts 297°
2026-04-22 21:15 43.72791 7.39160 36180 ft 355 kts 296°
2026-04-22 21:15 43.74756 7.32894 36195 ft 355 kts 296°
2026-04-22 21:16 43.76727 7.26600 36196 ft 358 kts 296°
2026-04-22 21:16 43.78764 7.20290 36183 ft 360 kts 297°
2026-04-22 21:17 43.80866 7.13980 36208 ft 362 kts 298°
2026-04-22 21:17 43.82976 7.07628 36187 ft 364 kts 297°
2026-04-22 21:18 43.85084 7.01246 36180 ft 364 kts 297°
2026-04-22 21:18 43.87150 6.94962 36189 ft 362 kts 297°
2026-04-22 21:19 43.89225 6.88633 36188 ft 360 kts 297°
2026-04-22 21:19 43.91283 6.82340 36160 ft 357 kts 297°
2026-04-22 21:20 43.93322 6.76089 36194 ft 355 kts 297°
2026-04-22 21:20 43.95358 6.69838 36200 ft 356 kts 297°
2026-04-22 21:21 43.97393 6.63573 36187 ft 356 kts 297°
2026-04-22 21:21 43.99422 6.57312 36199 ft 356 kts 297°
2026-04-22 21:22 44.01450 6.51039 36194 ft 357 kts 297°
2026-04-22 21:22 44.03479 6.44747 36175 ft 357 kts 297°
2026-04-22 21:23 44.05508 6.38440 36202 ft 358 kts 297°
2026-04-22 21:23 44.07538 6.32113 36190 ft 358 kts 297°
2026-04-22 21:24 44.09570 6.25767 36177 ft 360 kts 297°
2026-04-22 21:24 44.11599 6.19412 36180 ft 358 kts 297°
2026-04-22 21:25 44.13619 6.13073 36195 ft 358 kts 297°
2026-04-22 21:25 44.15635 6.06727 36167 ft 358 kts 297°
2026-04-22 21:26 44.17647 6.00383 36185 ft 358 kts 297°
2026-04-22 21:26 44.19633 5.94107 36185 ft 359 kts 297°
2026-04-22 21:27 44.21629 5.87780 36189 ft 359 kts 297°
2026-04-22 21:27 44.23637 5.81399 36185 ft 359 kts 297°
2026-04-22 21:28 44.25644 5.75010 36199 ft 360 kts 297°
2026-04-22 21:28 44.27652 5.68597 36178 ft 360 kts 296°
2026-04-22 21:29 44.29655 5.62187 36194 ft 360 kts 297°
2026-04-22 21:29 44.31654 5.55773 36203 ft 360 kts 297°
2026-04-22 21:30 44.33653 5.49345 36188 ft 361 kts 297°
2026-04-22 21:30 44.35647 5.42912 36190 ft 361 kts 297°
2026-04-22 21:31 44.37639 5.36474 36185 ft 361 kts 297°
2026-04-22 21:31 44.39624 5.30039 36182 ft 360 kts 296°
2026-04-22 21:32 44.41601 5.23617 36188 ft 359 kts 296°
2026-04-22 21:32 44.43573 5.17196 36182 ft 358 kts 296°
2026-04-22 21:33 44.45531 5.10802 36189 ft 357 kts 296°
2026-04-22 21:33 44.47485 5.04406 36190 ft 357 kts 296°
2026-04-22 21:34 44.49412 4.98085 36188 ft 358 kts 296°
2026-04-22 21:34 44.51360 4.91675 36189 ft 358 kts 296°
2026-04-22 21:35 44.52978 4.86342 36183 ft 358 kts 296°
2026-04-22 21:35 44.55238 4.78875 36183 ft 358 kts 296°
2026-04-22 21:36 44.57008 4.73597 36188 ft 357 kts 299°
2026-04-22 21:36 44.59257 4.67400 36178 ft 356 kts 300°
2026-04-22 21:37 44.61505 4.61213 36179 ft 356 kts 300°
2026-04-22 21:37 44.63738 4.55009 36164 ft 356 kts 299°
2026-04-22 21:38 44.65962 4.48788 36178 ft 357 kts 299°
2026-04-22 21:38 44.68182 4.42554 36183 ft 357 kts 299°
2026-04-22 21:39 44.70403 4.36297 36191 ft 358 kts 299°
2026-04-22 21:39 44.72609 4.30069 36174 ft 359 kts 299°
2026-04-22 21:40 44.74843 4.23746 36184 ft 359 kts 299°
2026-04-22 21:40 44.77062 4.17451 36166 ft 359 kts 299°
2026-04-22 21:41 44.79262 4.11195 36174 ft 359 kts 299°
2026-04-22 21:41 44.81478 4.04880 36174 ft 360 kts 299°
2026-04-22 21:42 44.83667 3.98627 36172 ft 360 kts 299°
2026-04-22 21:42 44.85881 3.92287 36166 ft 361 kts 299°
2026-04-22 21:43 44.88091 3.85945 36166 ft 360 kts 298°
2026-04-22 21:43 44.90292 3.79614 36134 ft 359 kts 298°
2026-04-22 21:44 44.92481 3.73300 36154 ft 358 kts 298°
2026-04-22 21:44 44.94664 3.66991 36171 ft 358 kts 298°
2026-04-22 21:45 44.96846 3.60670 36169 ft 359 kts 298°
2026-04-22 21:45 44.99028 3.54332 36163 ft 359 kts 298°
2026-04-22 21:46 45.01204 3.47998 36162 ft 359 kts 298°
2026-04-22 21:46 45.03377 3.41657 36159 ft 358 kts 298°
2026-04-22 21:47 45.05542 3.35325 36160 ft 358 kts 298°
2026-04-22 21:47 45.07703 3.28989 36155 ft 358 kts 298°
2026-04-22 21:48 45.09861 3.22647 36155 ft 357 kts 298°
2026-04-22 21:48 45.12013 3.16310 36154 ft 357 kts 298°
2026-04-22 21:49 45.14161 3.09965 36152 ft 357 kts 298°
2026-04-22 21:49 45.16308 3.03612 36143 ft 358 kts 298°
2026-04-22 21:50 45.18424 2.97334 36152 ft 357 kts 298°
2026-04-22 21:50 45.20564 2.90970 36149 ft 358 kts 298°
2026-04-22 21:51 45.22701 2.84599 36151 ft 358 kts 298°
2026-04-22 21:52 45.25905 2.75018 36147 ft 359 kts 297°
2026-04-22 21:52 45.28024 2.68662 36136 ft 359 kts 297°
2026-04-22 21:53 45.30156 2.62254 36139 ft 359 kts 297°
2026-04-22 21:53 45.32285 2.55836 36143 ft 359 kts 297°
2026-04-22 21:54 45.34416 2.49400 36148 ft 360 kts 297°
2026-04-22 21:54 45.36546 2.42947 36140 ft 360 kts 297°
2026-04-22 21:55 45.38672 2.36492 36148 ft 361 kts 297°
2026-04-22 21:55 45.40797 2.30026 36123 ft 360 kts 296°
2026-04-22 21:56 45.42913 2.23567 36136 ft 360 kts 296°
2026-04-22 21:56 45.45027 2.17101 36139 ft 360 kts 296°
2026-04-22 21:57 45.47138 2.10629 36130 ft 360 kts 296°
2026-04-22 21:57 45.49247 2.04145 36140 ft 361 kts 296°
2026-04-22 21:58 45.51325 1.97743 36134 ft 361 kts 296°
2026-04-22 21:58 45.53428 1.91248 36129 ft 360 kts 296°
2026-04-22 21:59 45.55525 1.84753 36129 ft 360 kts 296°
2026-04-22 21:59 45.57619 1.78250 36131 ft 361 kts 296°
2026-04-22 22:00 45.59698 1.71779 36135 ft 361 kts 296°
2026-04-22 22:00 45.61788 1.65259 36129 ft 361 kts 296°
2026-04-22 22:01 45.63885 1.58698 36136 ft 361 kts 296°
2026-04-22 22:01 45.65966 1.52171 36116 ft 361 kts 295°
2026-04-22 22:02 45.68044 1.45639 36121 ft 361 kts 295°
2026-04-22 22:02 45.70121 1.39092 36114 ft 362 kts 295°
2026-04-22 22:03 45.72181 1.32582 36110 ft 362 kts 295°
2026-04-22 22:03 45.74255 1.26011 36109 ft 362 kts 295°
2026-04-22 22:04 45.76326 1.19434 36104 ft 363 kts 295°
2026-04-22 22:04 45.78395 1.12842 36097 ft 363 kts 295°
2026-04-22 22:05 45.80465 1.06238 36103 ft 363 kts 295°
2026-04-22 22:05 45.82320 0.99609 36107 ft 364 kts 289°
2026-04-22 22:06 45.83777 0.92649 36098 ft 365 kts 288°
2026-04-22 22:06 45.85203 0.85667 36101 ft 365 kts 288°
2026-04-22 22:07 45.86645 0.78690 36081 ft 365 kts 288°
2026-04-22 22:07 45.88095 0.71717 36090 ft 364 kts 288°
2026-04-22 22:08 45.89544 0.64750 36099 ft 364 kts 288°
2026-04-22 22:08 45.90991 0.57775 36092 ft 365 kts 288°
2026-04-22 22:09 45.92434 0.50797 36088 ft 365 kts 288°
2026-04-22 22:09 45.93876 0.43805 36088 ft 365 kts 288°
2026-04-22 22:10 45.95314 0.36802 36079 ft 365 kts 288°
2026-04-22 22:10 45.96037 0.33274 35716 ft 372 kts 288°
2026-04-22 22:10 45.96765 0.29715 35252 ft 371 kts 288°
2026-04-22 22:10 45.97494 0.26146 34755 ft 372 kts 288°
2026-04-22 22:11 45.98223 0.22565 34191 ft 375 kts 287°
2026-04-22 22:11 45.98957 0.18957 33549 ft 377 kts 287°
2026-04-22 22:11 45.99694 0.15328 32922 ft 379 kts 287°
2026-04-22 22:11 46.00429 0.11698 32365 ft 379 kts 287°
2026-04-22 22:12 46.01163 0.08069 31933 ft 376 kts 287°
2026-04-22 22:12 46.01892 0.04459 31473 ft 375 kts 287°
2026-04-22 22:12 46.02616 0.00863 31022 ft 373 kts 287°
2026-04-22 22:12 46.03318 -0.02625 30581 ft 372 kts 287°
2026-04-22 22:13 46.04035 -0.06194 30146 ft 371 kts 287°
2026-04-22 22:13 46.04748 -0.09750 29634 ft 369 kts 287°
2026-04-22 22:13 46.05455 -0.13283 29180 ft 366 kts 287°
2026-04-22 22:13 46.06156 -0.16792 28718 ft 363 kts 287°
2026-04-22 22:14 46.06851 -0.20278 28265 ft 361 kts 286°
2026-04-22 22:14 46.07541 -0.23747 27808 ft 359 kts 286°
2026-04-22 22:14 46.08227 -0.27199 27344 ft 358 kts 286°
2026-04-22 22:14 46.08908 -0.30635 26907 ft 356 kts 286°
2026-04-22 22:15 46.09587 -0.34063 26453 ft 355 kts 286°
2026-04-22 22:15 46.10262 -0.37479 26015 ft 354 kts 286°
2026-04-22 22:15 46.10934 -0.40885 25575 ft 353 kts 286°
2026-04-22 22:15 46.11605 -0.44288 25150 ft 352 kts 286°
2026-04-22 22:16 46.12272 -0.47680 24716 ft 352 kts 286°
2026-04-22 22:16 46.12937 -0.51069 24274 ft 351 kts 286°
2026-04-22 22:16 46.13600 -0.54456 23847 ft 351 kts 286°
2026-04-22 22:16 46.14263 -0.57846 23356 ft 351 kts 286°
2026-04-22 22:17 46.14916 -0.61189 22883 ft 351 kts 286°
2026-04-22 22:17 46.15583 -0.64612 22404 ft 349 kts 286°
2026-04-22 22:17 46.16228 -0.67927 21993 ft 347 kts 286°
2026-04-22 22:17 46.16878 -0.71276 21559 ft 346 kts 286°
2026-04-22 22:18 46.17525 -0.74612 21125 ft 345 kts 286°
2026-04-22 22:18 46.18168 -0.77936 20693 ft 343 kts 286°
2026-04-22 22:18 46.18809 -0.81250 20261 ft 342 kts 285°
2026-04-22 22:18 46.19447 -0.84556 19844 ft 341 kts 285°
2026-04-22 22:19 46.20081 -0.87848 19430 ft 340 kts 285°
2026-04-22 22:19 46.20715 -0.91140 19008 ft 340 kts 287°
2026-04-22 22:19 46.21695 -0.94221 18559 ft 340 kts 305°
2026-04-22 22:19 46.23313 -0.96688 18138 ft 339 kts 319°
2026-04-22 22:20 46.25140 -0.98836 17679 ft 338 kts 321°
2026-04-22 22:20 46.26948 -1.00881 17238 ft 337 kts 321°
2026-04-22 22:20 46.28798 -1.02962 16805 ft 336 kts 321°
2026-04-22 22:20 46.30637 -1.05045 16376 ft 335 kts 321°
2026-04-22 22:21 46.32463 -1.07131 15952 ft 334 kts 321°
2026-04-22 22:21 46.34280 -1.09219 15531 ft 333 kts 321°
2026-04-22 22:21 46.36088 -1.11307 15115 ft 332 kts 321°
2026-04-22 22:21 46.37892 -1.13397 14700 ft 332 kts 322°
2026-04-22 22:22 46.39084 -1.14781 14424 ft 332 kts 322°
2026-04-22 22:22 46.40883 -1.16870 14027 ft 332 kts 322°
2026-04-22 22:22 46.42685 -1.18967 13546 ft 332 kts 322°
2026-04-22 22:22 46.44485 -1.21063 13102 ft 332 kts 322°
2026-04-22 22:23 46.46281 -1.23156 12665 ft 331 kts 322°
2026-04-22 22:23 46.48072 -1.25246 12242 ft 330 kts 322°
2026-04-22 22:23 46.49882 -1.27360 11818 ft 329 kts 322°
2026-04-22 22:23 46.51640 -1.29415 11404 ft 328 kts 322°
2026-04-22 22:24 46.53439 -1.31520 10981 ft 327 kts 322°
2026-04-22 22:24 46.55208 -1.33591 10631 ft 325 kts 322°
2026-04-22 22:24 46.56907 -1.35583 10583 ft 312 kts 322°
2026-04-22 22:24 46.58560 -1.37522 10518 ft 300 kts 322°
2026-04-22 22:25 46.60157 -1.39392 10447 ft 289 kts 323°
2026-04-22 22:25 46.61729 -1.41134 10346 ft 280 kts 324°
2026-04-22 22:25 46.63281 -1.42801 10148 ft 275 kts 325°
2026-04-22 22:25 46.64818 -1.44444 9854 ft 274 kts 324°
2026-04-22 22:26 46.66356 -1.46091 9512 ft 274 kts 325°
2026-04-22 22:26 46.67888 -1.47739 9221 ft 273 kts 324°
2026-04-22 22:26 46.69415 -1.49384 8884 ft 274 kts 324°
2026-04-22 22:26 46.70938 -1.51030 8689 ft 269 kts 325°
2026-04-22 22:27 46.72411 -1.52625 8620 ft 259 kts 324°
2026-04-22 22:27 46.73831 -1.54165 8536 ft 250 kts 324°
2026-04-22 22:27 46.75196 -1.55646 8490 ft 238 kts 325°
2026-04-22 22:27 46.76510 -1.57074 8191 ft 234 kts 324°
2026-04-22 22:28 46.77808 -1.58483 7908 ft 231 kts 325°
2026-04-22 22:28 46.79091 -1.59879 7593 ft 229 kts 326°
2026-04-22 22:28 46.80365 -1.61264 7300 ft 227 kts 325°
2026-04-22 22:28 46.81627 -1.62637 7003 ft 226 kts 325°
2026-04-22 22:29 46.82882 -1.64004 6714 ft 225 kts 325°
2026-04-22 22:29 46.84131 -1.65366 6425 ft 224 kts 325°
2026-04-22 22:29 46.85375 -1.66723 6116 ft 223 kts 325°
2026-04-22 22:29 46.86615 -1.68077 5811 ft 222 kts 325°
2026-04-22 22:30 46.87847 -1.69422 5523 ft 220 kts 325°
2026-04-22 22:30 46.89062 -1.70749 5245 ft 215 kts 325°
2026-04-22 22:30 46.90249 -1.72049 4963 ft 212 kts 326°
2026-04-22 22:30 46.91422 -1.73332 4656 ft 209 kts 325°
2026-04-22 22:31 46.92583 -1.74602 4342 ft 207 kts 325°
2026-04-22 22:31 46.93784 -1.75677 4018 ft 204 kts 343°
2026-04-22 22:31 46.95147 -1.75896 3755 ft 193 kts 17°
2026-04-22 22:31 46.96377 -1.75223 3627 ft 191 kts 24°
2026-04-22 22:32 46.97648 -1.74507 3461 ft 198 kts 27°
2026-04-22 22:32 46.98895 -1.73656 3259 ft 195 kts 31°
2026-04-22 22:32 47.00048 -1.72792 3189 ft 181 kts 33°
2026-04-22 22:32 47.01140 -1.71955 2971 ft 173 kts 34°
2026-04-22 22:33 47.02193 -1.71145 2757 ft 168 kts 36°
2026-04-22 22:33 47.03198 -1.70375 2518 ft 157 kts 38°
2026-04-22 22:33 47.04124 -1.69665 2358 ft 143 kts 38°
2026-04-22 22:33 47.05016 -1.68975 2158 ft 146 kts 38°
2026-04-22 22:34 47.05922 -1.68279 1945 ft 147 kts 39°
2026-04-22 22:34 47.06817 -1.67597 1759 ft 143 kts 38°
2026-04-22 22:34 47.07694 -1.66927 1611 ft 141 kts 38°
2026-04-22 22:34 47.08558 -1.66264 1425 ft 140 kts 39°
2026-04-22 22:35 47.09405 -1.65606 1217 ft 136 kts 38°
2026-04-22 22:35 47.10235 -1.64945 1035 ft 135 kts 37°
2026-04-22 22:35 47.11065 -1.64286 801 ft 137 kts 33°
2026-04-22 22:35 47.11921 -1.63642 611 ft 139 kts 28°
2026-04-22 22:36 47.12783 -1.62996 411 ft 139 kts 29°
2026-04-22 22:36 47.13635 -1.62357 251 ft 136 kts 29°
2026-04-22 22:36 47.14450 -1.61729 91 ft 127 kts 30°
2026-04-22 22:36 47.15081 -1.61250 84 ft 71 kts 28°
2026-04-22 22:37 47.15378 -1.61025 87 ft 36 kts 27°
2026-04-22 22:37 47.15587 -1.60865 86 ft 27 kts 27°
2026-04-22 22:37 47.15750 -1.60741 83 ft 25 kts 27°
2026-04-22 22:37 47.15834 -1.60633 85 ft 13 kts 75°
2026-04-22 22:38 47.15821 -1.60545 89 ft 5 kts 124°
2026-04-22 22:38 47.15811 -1.60524 90 ft 1 kts 126°
2026-04-22 22:38 47.15805 -1.60513 89 ft 1 kts 126°
2026-04-22 22:38 47.15799 -1.60500 88 ft 2 kts 124°
2026-04-22 22:39 47.15796 -1.60465 88 ft 5 kts 84°
2026-04-22 22:39 47.15810 -1.60426 89 ft 2 kts 88°
2026-04-22 22:39 47.15799 -1.60403 92 ft 3 kts 126°
2026-04-22 22:39 47.15784 -1.60373 89 ft 5 kts 127°
2026-04-22 22:40 47.15771 -1.60349 89 ft 1 kts 127°
2026-04-22 22:40 47.15771 -1.60348 89 ft 0 kts 127°